This demonstration page uses our WeatherBlox Daily Observations layout. Learn more.

Left ArrowRight Arrow

41.86663, -103.66717

Hourly Observations for January 19, 2017

Temp ( °F °C ) Dew Point ( °F °C ) Humidity (%) Winds ( mph kmh ) Pressure ( in mb ) Visibility ( mi km ) Precip ( " mm )
12:53 am 00:53 Clear 27 -2.8 19 -7.2 72 72 NNW 7 11 29.65 1004 10 16 0.00 0.00
1:53 am 01:53 Clear 27 -2.8 20 -6.7 75 75 NNW 7 11 29.65 1004 10 16 0.00 0.00
2:53 am 02:53 Clear 28 -2.2 20 -6.7 72 72 NNW 7 11 29.65 1004 10 16 0.00 0.00
3:53 am 03:53 Clear 27 -2.8 19 -7.2 72 72 NNW 9 15 29.62 1003 10 16 0.00 0.00
4:53 am 04:53 Clear 22 -5.6 16 -8.9 78 78 SE 6 9 29.65 1004 10 16 0.00 0.00
5:53 am 05:53 Clear 21 -6.1 17 -8.3 85 85 E 5 7 29.66 1005 10 16 0.00 0.00
6:53 am 06:53 Clear 22 -5.6 16 -8.9 78 78 E 6 9 29.65 1004 10 16 0.00 0.00
7:53 am 07:53 Sunny 25 -3.9 18 -7.8 75 75 ENE 5 7 29.66 1005 10 16 0.00 0.00
8:53 am 08:53 Sunny 32 0 24 -4.4 73 73 Calm 29.64 1004 10 16 0.00 0.00
9:53 am 09:53 Sunny 38 3.3 24 -4.4 57 57 Calm 29.64 1004 10 16 0.00 0.00
10:53 am 10:53 Sunny 43 6.1 27 -2.8 53 53 Calm 29.60 1002 10 16 0.00 0.00
11:53 am 11:53 Sunny 46 7.8 25 -3.9 44 44 VRB 3 6 29.57 1001 10 16 0.00 0.00
12:53 pm 12:53 Sunny 50 10 26 -3.3 39 39 E 5 7 29.52 1000 10 16 0.00 0.00
1:53 pm 13:53 Sunny 54 12.2 24 -4.4 31 31 Calm 29.49 999 10 16 0.00 0.00
2:53 pm 14:53 Sunny 56 13.3 23 -5 28 28 WNW 3 6 29.49 999 10 16 0.00 0.00
3:53 pm 15:53 Sunny 51 10.6 24 -4.4 35 35 W 8 13 29.51 999 10 16 0.00 0.00
4:53 pm 16:53 Sunny 43 6.1 24 -4.4 47 47 WNW 7 11 29.54 1001 10 16 0.00 0.00
5:53 pm 17:53 Clear 40 4.4 25 -3.9 55 55 W 7 11 29.57 1001 10 16 0.00 0.00
6:53 pm 18:53 Clear 35 1.7 24 -4.4 64 64 WNW 6 9 29.58 1002 10 16 0.00 0.00
7:53 pm 19:53 Clear 32 0 24 -4.4 73 73 NW 7 11 29.58 1002 10 16 0.00 0.00
8:53 pm 20:53 Clear 31 -0.6 24 -4.4 76 76 NNW 5 7 29.57 1001 10 16 0.00 0.00
9:53 pm 21:53 Clear 30 -1.1 23 -5 75 75 NNW 7 11 29.55 1001 10 16 0.00 0.00
10:53 pm 22:53 Clear 30 -1.1 22 -5.6 72 72 N 5 7 29.52 1000 10 16 0.00 0.00
11:53 pm 23:53 Clear 27 -2.8 21 -6.1 78 78 Calm 29.51 999 10 16 0.00 0.00

Powered by AerisWeather